Notices

What's New in latest Release from April 7th, 2021:

- Updated Glossary, including Speed of Maximum Gust, and Total Hourly Precipitation

- Updated national and regional climate services offices contacts and prices information

- Addition of station inventory lists for 1981-2010, 1971-2000, and 1961-1990 Normals.

If you haven't already, please take our survey and provide feedback about our website: https://eccc.sondage-survey.ca/f/LanguageSelection.aspx?s=442ca660-fcf1-47c0-95a9-59707d6fd709

Hourly Data Report for August 16, 2016

TORONTO CITY
ONTARIO

43°40'00.000" N
79°24'00.000" W
112.50 m
6158355
71508
XTO

Download Data

Hourly Data (August 2016)
Hourly Data Report for August 16, 2016
TIME
LST
Temp Definition
°C
Dew Point Definition
°C
Rel Hum Definition
%
Precip. Amount Definition
mm

Wind Dir Definition
10's deg

Wind Spd Definition
km/h
Visibility Definition
km
Stn Press Definition
kPa
Hmdx Definition


Wind Chill Definition


Weather Definition


00:00 23.1 20.5 85 0.0 LegendMM LegendMM   100.70 31   LegendNANA
01:00 22.1 20.4 90 1.2 LegendMM LegendMM   100.60 30   LegendNANA
02:00 22.3 20.7 91 1.2 LegendMM LegendMM   100.58 30   LegendNANA
03:00 22.1 20.8 92 1.0 LegendMM LegendMM   100.53 30   LegendNANA
04:00 22.0 20.8 93 1.5 LegendMM LegendMM   100.50 30   LegendNANA
05:00 21.9 20.6 93 1.6 LegendMM LegendMM   100.49 30   LegendNANA
06:00 21.9 20.6 92 0.0 LegendMM LegendMM   100.43 30   LegendNANA
07:00 22.3 21.0 93 2.8 LegendMM LegendMM   100.38 31   LegendNANA
08:00 22.3 21.0 93 5.1 LegendMM LegendMM   100.31 31   LegendNANA
09:00 21.6 20.1 91 2.1 LegendMM LegendMM   100.19 29   LegendNANA
10:00 21.5 19.8 90 0.8 LegendMM LegendMM   100.11 29   LegendNANA
11:00 22.2 20.2 88 0.0 LegendMM LegendMM   99.98 30   LegendNANA
12:00 25.1 21.9 82 0.0 LegendMM LegendMM   99.83 34   LegendNANA
13:00 25.3 21.2 78 0.0 LegendMM LegendMM   99.77 34   LegendNANA
14:00 26.1 21.3 75 0.0 LegendMM LegendMM   99.67 35   LegendNANA
15:00 25.9 21.4 76 0.0 LegendMM LegendMM   99.51 35   LegendNANA
16:00 27.9 18.4 56 0.0 LegendMM LegendMM   99.46 34   LegendNANA
17:00 25.5 18.1 64 0.0 LegendMM LegendMM   99.57 32   LegendNANA
18:00 23.3 16.6 66 0.0 LegendMM LegendMM   99.74 28   LegendNANA
19:00 21.2 15.6 70 0.0 LegendMM LegendMM   99.86 26   LegendNANA
20:00 21.5 15.6 69 0.0 LegendMM LegendMM   99.99 26   LegendNANA
21:00 21.0 15.5 71 0.0 LegendMM LegendMM   100.17 25   LegendNANA
22:00 20.2 15.5 75 0.0 LegendMM LegendMM   100.28     LegendNANA
23:00 19.9 15.6 76 0.0 LegendMM LegendMM   100.33     LegendNANA

Notes on Data Quality.

Legend

  • E = Estimated
  • M = Missing
  • NA = Not Available*
  • [empty] = Indicates an unobserved value
Date modified: